Starlink 11194

operational
NORAD ID: 60187 Int'l Des: 2024-124 Owner: SPXS Country: US Constellation: starlink
LEOCIRCULAR

关于 Starlink 11194

正在加载描述...

实时位置

正在加载3D地球...

即将过境

高度历史

Altitude vs Time

uPlot chart will show altitude changes over time

两行轨道根数

1 60187U 24124E 25258.12385378 -.00001331 00000-0 -61324-5 0 9995
2 60187 53.1590 306.4268 0001145 77.2979 282.8166 15.69706677 68964
Epoch: Sep 15, 2025 • Age: 14 hours

当前状态

高度 360.7 km
速度 7.70 km/s
星下点 26.80°N, 153.71°W
发射日期 Jul 3, 2024
运行时间 1.2 years
类型 internet

技术详情

分类 Payload
质量 960.00 kg
干质量 910.00 kg
总质量 960.00 kg
长度 0.30 m
直径 4.10 m
跨度 29.00 m
形状 Box + pan
制造商 SPXS
平台类型 Starlink V2MD
阶段状态 In Orbit
所有者/国家 SPXS/US

大型星座

Loading constellations...